Regional Weather Roundup
Issued by NWS

Home | Current Version | Previous Version | Graphics & Text | Print | Product List | Glossary On
Versions: 1 2 3 4 5 6 7 8 9 10 11 12 13 14 15 16 17 18 19 20 21 22 23 24 25 26 27 28 29 30 31 32 33 34 35 36 37 38 39 40 41 42 43 44 45 46 47 48 49 50
669
ASUS43 KOAX 130610
RWRNE

WEATHER ROUNDUP FOR NEBRASKA
NATIONAL WEATHER SERVICE OMAHA NE
1200 AM CST SAT FEB 13 2016

NOTES: SATELLITE DATA IS BEING USED TO AUGMENT CLOUD COVER ABOVE
       12000 FEET.
       "FAIR" INDICATES FEW OR NO CLOUDS BELOW 12,000 FEET WITH NO
       SIGNIFICANT WEATHER AND/OR OBSTRUCTIONS TO VISIBILITY.

  * THESE STATIONS DO NOT REPORT WEATHER SUCH AS RAIN...SNOW OR FOG.

NEZ001>004-019>022-054>056-130700-
NEBRASKA PANHANDLE

CITY           SKY/WX    TMP DP  RH WIND       PRES   REMARKS
SCOTTSBLUFF    CLOUDY    33  30  88 SE10      30.24F WCI  25
6HR MIN TEMP:  32; 6HR MAX TEMP:  35;

ALLIANCE       CLOUDY    31  29  92 S15G23    30.25F WCI  20
6HR MIN TEMP:  31; 6HR MAX TEMP:  34;

CHADRON        CLOUDY    34  29  82 S13       30.24F WCI  25
6HR MIN TEMP:  26; 6HR MAX TEMP:  36;

KIMBALL        FOG       29  29 100 S14       30.23F VSB 1/2 WCI  19
SIDNEY         CLOUDY    29  29 100 S16       30.27F FOG     WCI  17
6HR MIN TEMP:  29; 6HR MAX TEMP:  31;

$$

NEZ057>060-069>072-079>082-130700-
SOUTHWEST NEBRASKA

CITY           SKY/WX    TMP DP  RH WIND       PRES   REMARKS
NORTH PLATTE   CLOUDY    25  21  85 SE9       30.41F WCI  15
6HR MIN TEMP:  25; 6HR MAX TEMP:  31; 6HR PCP: TRACE;

IMPERIAL       CLOUDY    29  28  96 SE15      30.36F WCI  18
6HR MIN TEMP:  29; 6HR MAX TEMP:  34;

LEXINGTON      CLOUDY    23  17  77 SE12      30.47F WCI  12
MCCOOK         FOG       26  25  96 SE12      30.44F VSB 1/4 WCI  16
6HR MIN TEMP:  26; 6HR MAX TEMP:  33;

OGALLALA       CLOUDY    30  28  93 SE12      30.35F FOG     WCI  21
$$

NEZ005>010-023>029-035>040-094-130700-
NORTH CENTRAL NEBRASKA

CITY           SKY/WX    TMP DP  RH WIND       PRES   REMARKS
VALENTINE      CLOUDY    23  16  74 SE13      30.41F WCI  11
6HR MIN TEMP:  22; 6HR MAX TEMP:  24;

AINSWORTH      CLOUDY    20  13  75 SE12      30.43F WCI   8
BROKEN BOW     CLOUDY    20  16  84 SE10      30.46S WCI   9
6HR MIN TEMP:  20; 6HR MAX TEMP:  27;

O`NEILL        CLOUDY    15   9  76 E9        30.52F WCI   3
ORD            CLOUDY    18  12  77 SE8       30.51F WCI   8
6HR MIN TEMP:  17; 6HR MAX TEMP:  23;

THEDFORD       CLOUDY    26  21  83 SE14      30.39F WCI  14
$$

NEZ041-046>049-061>064-073>077-083>087-130700-
SOUTH CENTRAL NEBRASKA

CITY           SKY/WX    TMP DP  RH WIND       PRES   REMARKS
GRAND ISLAND   CLOUDY    17  10  74 E9        30.55F WCI   6
6HR MIN TEMP:  17; 6HR MAX TEMP:  22;

AURORA         CLOUDY    17  10  76 E8        30.55F WCI   6
HASTINGS       CLOUDY    18  11  74 E9        30.52F WCI   7
6HR MIN TEMP:  18; 6HR MAX TEMP:  24;

HEBRON         CLOUDY    20  13  76 NE10      30.58R WCI   8
HOLDREGE       CLOUDY    21  17  84 E12       30.49S WCI   9
KEARNEY *      CLOUDY    19  14  79 SE10      30.51S WCI   8
YORK           CLOUDY    16   9  73 E6        30.58F WCI   7
$$

NEZ011>018-030>034-042>045-130700-
NORTHEAST NEBRASKA

CITY           SKY/WX    TMP DP  RH WIND       PRES   REMARKS
NORFOLK        CLOUDY    13   3  64 NE6       30.58S WCI   4
6HR MIN TEMP:  13; 6HR MAX TEMP:  15;

ALBION         CLOUDY    15   6  69 E6        30.57R WCI   6
BLAIR          CLOUDY    12   2  65 N12       30.60S WCI  -2
COLUMBUS *     CLOUDY    16   0  48 NE6       30.60R WCI   7
FREMONT        CLOUDY    13   3  65 NE3       30.62S
TEKAMAH        PTCLDY     9   0  67 N9        30.66S WCI  -4
6HR MIN TEMP:   9; 6HR MAX TEMP:  13;

WAYNE          PTCLDY     9   1  70 NE5       30.61F WCI   1
$$

NEZ050>053-065>068-078-088>093-130700-
SOUTHEAST NEBRASKA

CITY           SKY/WX    TMP DP  RH WIND       PRES   REMARKS
LINCOLN        CLOUDY    15   4  61 NE9       30.63S WCI   3
6HR MIN TEMP:  15; 6HR MAX TEMP:  20;

OMAHA EPPLEY   CLOUDY    13   1  59 N9        30.66R WCI   1
6HR MIN TEMP:  13; 6HR MAX TEMP:  16;

BEATRICE       CLOUDY    17   9  69 NE7       30.60S WCI   8
FALLS CITY     CLOUDY    16   3  56 N9        30.62S WCI   4
6HR MIN TEMP:  16; 6HR MAX TEMP:  24;

NEBRASKA CITY  CLOUDY    15   0  51 NE13      30.61F WCI   0
PLATTSMOUTH    CLOUDY    13   3  63 N8        30.62R WCI   2
$$

NEZ044-045-051>053-067-130700-
OMAHA AREA

CITY           SKY/WX    TMP DP  RH WIND       PRES   REMARKS
OMAHA EPPLEY   CLOUDY    13   1  59 N9        30.66R WCI   1
6HR MIN TEMP:  13; 6HR MAX TEMP:  16;

BLAIR          CLOUDY    12   2  65 N12       30.60S WCI  -2
FREMONT        CLOUDY    13   3  65 NE3       30.62S
MILLARD        MOCLDY    14   0  53 N5        30.64S WCI   7
OFFUTT AFB     CLOUDY    14   2  60 N9        30.63S WCI   2
PLATTSMOUTH    CLOUDY    13   3  63 N8        30.62R WCI   2
WAHOO          CLOUDY    14   5  69 NE7       30.63R WCI   3
$$




USA.gov is the U.S. government's official web portal to all federal, state and local government web resources and services.